Weather History for Huntingburg, IN

Change the Weather History Date:

Friday, November 16, 2012

  Actual Average Record
Temperature  
Mean Temperature 40 °F -  
Max Temperature 53 °F 52 °F 71 °F (2001)
Min Temperature 26 °F 36 °F 24 °F (2007)
Degree Days  
Heating Degree Days 26    
Moisture  
Dew Point 28 °F    
Average Humidity 68    
Maximum Humidity 93    
Minimum Humidity 38    
Precipitation  
Precipitation 0.00 in - - ()
Sea Level Pressure  
Sea Level Pressure 30.43 in    
Wind  
Wind Speed 3 mph (NNE)    
Max Wind Speed 10 mph    
Max Gust Speed -    
Visibility 7 miles    
Events      
Averages and records for this station are not official NWS values.
T = Trace of Precipitation, MM = Missing Value Source: NWS Daily Summary

Daily Weather History Graph

Daily Weather History Graph

Search for Another Location

Airport:

Trip Planner

Search our weather history database for the weather conditions in past years. The results will help you decide how hot, cold, wet, or windy it might be!

Date:

Astronomy

Nov. 16, 2012 Rise Set
Actual Time 7:30 AM EST 5:34 PM EST
Civil Twilight 7:02 AM EST 6:02 PM EST
Nautical Twilight 6:30 AM EST 6:34 PM EST
Astronomical Twilight 5:59 AM EST 7:05 PM EST
Moon 10:23 AM EST (11/16) 8:33 PM EST (11/16)
Length of Visible Light 11h 00m
Length of Day
10h 03m
Waxing Crescent, 11% of the Moon is Illuminated
Nov 16
Waxing Crescent
Nov 20
First Quarter
Nov 28
Full
Dec 6
Last Quarter
Dec 13
New

Hourly Weather History & Observations

Time (EST) Temp. Windchill Dew Point Humidity Pressure Visibility Wind Dir Wind Speed Gust Speed Precip Events Conditions
12:15 AM 35.6 °F - 28.4 °F 75% 30.37 in 7.0 mi Calm Calm - N/A   Clear
12:36 AM 33.8 °F 30.8 °F 28.4 °F 81% 30.38 in 6.0 mi North 3.5 mph - N/A   Clear
12:55 AM 32.0 °F 28.7 °F 28.4 °F 87% 30.38 in 5.0 mi NNE 3.5 mph - N/A   Clear
1:15 AM 32.0 °F 28.7 °F 28.4 °F 87% 30.38 in 5.0 mi North 3.5 mph - N/A   Clear
1:35 AM 30.2 °F - 26.6 °F 86% 30.38 in 5.0 mi Calm Calm - N/A   Clear
1:56 AM 32.0 °F - 28.4 °F 87% 30.38 in 5.0 mi Calm Calm - N/A   Clear
2:35 AM 30.2 °F - 26.6 °F 86% 30.38 in 3.0 mi Calm Calm - N/A   Clear
2:55 AM 30.2 °F 26.7 °F 28.4 °F 93% 30.39 in 3.0 mi NNE 3.5 mph - N/A   Clear
3:15 AM 28.4 °F - 24.8 °F 86% 30.39 in 2.5 mi Calm Calm - N/A   Clear
3:35 AM 28.4 °F 23.3 °F 26.6 °F 93% 30.38 in 2.5 mi NNE 4.6 mph - N/A   Clear
3:55 AM 28.4 °F 24.6 °F 24.8 °F 86% 30.38 in 2.5 mi North 3.5 mph - N/A   Clear
4:15 AM 26.6 °F 22.6 °F 24.8 °F 93% 30.38 in 2.0 mi North 3.5 mph - N/A   Clear
4:35 AM 28.4 °F - 26.6 °F 93% 30.39 in 2.5 mi Calm Calm - N/A   Clear
4:55 AM 28.4 °F 24.6 °F 24.8 °F 86% 30.39 in 2.5 mi NE 3.5 mph - N/A   Clear
5:15 AM 26.6 °F 21.2 °F 24.8 °F 93% 30.39 in 2.5 mi NNE 4.6 mph - N/A   Clear
5:35 AM 26.6 °F 21.2 °F 24.8 °F 93% 30.40 in 2.5 mi North 4.6 mph - N/A   Clear
5:55 AM 26.6 °F 22.6 °F 24.8 °F 93% 30.41 in 2.0 mi NE 3.5 mph - N/A   Clear
6:15 AM 26.6 °F - 24.8 °F 93% 30.40 in 2.5 mi Calm Calm - N/A   Clear
6:35 AM 26.6 °F - 24.8 °F 93% 30.41 in 2.5 mi Calm Calm - N/A   Clear
7:15 AM 26.6 °F - 24.8 °F 93% 30.42 in 1.8 mi Calm Calm - N/A   Clear
7:35 AM 26.6 °F - 24.8 °F 93% 30.42 in 1.2 mi Calm Calm - N/A   Clear
8:15 AM 26.6 °F - 24.8 °F 93% 30.44 in 1.5 mi Calm Calm - N/A   Clear
8:35 AM 28.4 °F 24.6 °F 26.6 °F 93% 30.44 in 1.8 mi North 3.5 mph - N/A   Clear
8:55 AM 30.2 °F 23.4 °F 28.4 °F 93% 30.45 in 2.5 mi NNE 6.9 mph - N/A   Clear
9:15 AM 33.8 °F 27.7 °F 28.4 °F 81% 30.46 in 3.0 mi NNE 6.9 mph - N/A   Clear
9:55 AM 35.6 °F 29.9 °F 32.0 °F 87% 30.46 in 3.0 mi NNE 6.9 mph - N/A   Clear
10:15 AM 37.4 °F 33.8 °F 32.0 °F 81% 30.46 in 4.0 mi NNE 4.6 mph - N/A   Clear
10:35 AM 39.2 °F 37.0 °F 33.8 °F 81% 30.46 in 5.0 mi NE 3.5 mph - N/A   Clear
10:55 AM 42.8 °F 38.6 °F 33.8 °F 70% 30.47 in 5.0 mi North 6.9 mph - N/A   Clear
11:15 AM 42.8 °F 39.3 °F 33.8 °F 70% 30.47 in 5.0 mi ENE 5.8 mph - N/A   Clear
11:35 AM 44.6 °F 43.1 °F 33.8 °F 66% 30.47 in 5.0 mi East 3.5 mph - N/A   Clear
11:55 AM 44.6 °F 43.1 °F 33.8 °F 66% 30.46 in 6.0 mi NNE 3.5 mph - N/A   Clear
12:15 PM 46.4 °F - 33.8 °F 62% 30.45 in 5.0 mi Calm Calm - N/A   Clear
12:35 PM 48.2 °F - 33.8 °F 58% 30.44 in 6.0 mi North 6.9 mph - N/A   Clear
12:55 PM 48.2 °F - 33.8 °F 58% 30.44 in 7.0 mi NNE 4.6 mph - N/A   Clear
1:15 PM 50.0 °F - 33.8 °F 54% 30.43 in 9.0 mi NE 3.5 mph - N/A   Clear
1:35 PM 50.0 °F - 30.2 °F 47% 30.43 in 9.0 mi NE 3.5 mph - N/A   Clear
1:55 PM 51.8 °F - 30.2 °F 44% 30.42 in 10.0 mi NE 3.5 mph - N/A   Clear
2:15 PM 51.8 °F - 30.2 °F 44% 30.42 in 10.0 mi North 3.5 mph - N/A   Clear
2:35 PM 51.8 °F - 28.4 °F 41% 30.42 in 10.0 mi NNE 5.8 mph - N/A   Clear
2:55 PM 51.8 °F - 28.4 °F 41% 30.42 in 10.0 mi NE 10.4 mph - N/A   Clear
3:15 PM 53.6 °F - 28.4 °F 38% 30.41 in 10.0 mi NNE 4.6 mph - N/A   Clear
3:35 PM 51.8 °F - 28.4 °F 41% 30.41 in 10.0 mi NNE 5.8 mph - N/A   Clear
3:55 PM 51.8 °F - 28.4 °F 41% 30.42 in 10.0 mi NNE 6.9 mph - N/A   Clear
4:15 PM 51.8 °F - 26.6 °F 38% 30.42 in 10.0 mi NNE 6.9 mph - N/A   Clear
4:35 PM 51.8 °F - 26.6 °F 38% 30.42 in 10.0 mi NNE 6.9 mph - N/A   Clear
4:55 PM 51.8 °F - 26.6 °F 38% 30.43 in 10.0 mi North 5.8 mph - N/A   Clear
5:15 PM 48.2 °F - 28.4 °F 46% 30.43 in 10.0 mi NNE 5.8 mph - N/A   Clear
5:35 PM 48.2 °F - 26.6 °F 43% 30.43 in 10.0 mi North 4.6 mph - N/A   Clear
5:55 PM 46.4 °F 44.3 °F 28.4 °F 50% 30.44 in 10.0 mi North 4.6 mph - N/A   Clear
6:15 PM 46.4 °F 43.5 °F 28.4 °F 50% 30.43 in 10.0 mi North 5.8 mph - N/A   Clear
6:35 PM 44.6 °F 41.4 °F 28.4 °F 53% 30.44 in 10.0 mi North 5.8 mph - N/A   Clear
6:55 PM 44.6 °F 41.4 °F 28.4 °F 53% 30.44 in 10.0 mi North 5.8 mph - N/A   Clear
7:15 PM 42.8 °F 40.1 °F 28.4 °F 57% 30.45 in 10.0 mi North 4.6 mph - N/A   Clear
7:55 PM 42.8 °F 40.1 °F 26.6 °F 53% 30.45 in 10.0 mi NNE 4.6 mph - N/A   Clear
8:15 PM 41.0 °F 38.0 °F 26.6 °F 57% 30.45 in 10.0 mi NE 4.6 mph - N/A   Clear
8:35 PM 41.0 °F 36.4 °F 26.6 °F 57% 30.45 in 10.0 mi ENE 6.9 mph - N/A   Clear
8:55 PM 39.2 °F 35.9 °F 24.8 °F 56% 30.45 in 10.0 mi NE 4.6 mph - N/A   Clear
9:15 PM 42.8 °F 39.3 °F 26.6 °F 53% 30.45 in 10.0 mi ENE 5.8 mph - N/A   Clear
9:35 PM 39.2 °F 35.9 °F 26.6 °F 61% 30.46 in 10.0 mi NE 4.6 mph - N/A   Clear
9:55 PM 37.4 °F 32.8 °F 26.6 °F 65% 30.46 in 10.0 mi NE 5.8 mph - N/A   Clear
10:16 PM 39.2 °F 34.2 °F 26.6 °F 61% 30.46 in 10.0 mi NE 6.9 mph - N/A   Clear
10:35 PM 37.4 °F 32.1 °F 26.6 °F 65% 30.46 in 10.0 mi NNE 6.9 mph - N/A   Clear
10:55 PM 37.4 °F 32.8 °F 26.6 °F 65% 30.47 in 10.0 mi NNE 5.8 mph - N/A   Clear
11:15 PM 37.4 °F 32.1 °F 26.6 °F 65% 30.47 in 10.0 mi NNE 6.9 mph - N/A   Clear
11:35 PM 37.4 °F 32.8 °F 28.4 °F 70% 30.47 in 10.0 mi NE 5.8 mph - N/A   Clear
11:55 PM 37.4 °F 32.8 °F 28.4 °F 70% 30.47 in 9.0 mi NNE 5.8 mph - N/A   Clear